Weather in Borovsk

Russia / Kaluga Oblast     55°12′27″N   36°29′00″E
temp.,
°C
wind,
m/s
gust,
m/s
humid.,
%
clouds,
%
prec.,
mm/h
press.,
hPa
HPBL,
m
21 january, fri
fri2100:00−3ssw61395100 0.3 1001696
03:00−3s51194100 0.7 1000592
06:00−3s41095100 0.1 999682
09:00−4sse4994100 0.3 998455
12:00−4sse4896100 0.2 997504
15:00−3s3687100 0.4 997761
18:00−8se279472 0.0 997116
21:00−11se389895 0.0 997133
22 january, sat
sat2200:00−8ese3896100 0.1 998252
03:00−8ese3895100 0.4 998272
06:00−7e379693 0.6 999218
09:00−8se2498100 0.9 100287
12:00−6sse259596 0.1 1004262
15:00−5ese1397100 0.2 1006227
18:00−11se119981 0.2 101012
21:00−10e119893 0.3 101218
23 january, sun
sun2300:00−8e259774 0.2 1014110
03:00−13e239990 0.3 101840
06:00−18ene22100100 0.0 102115
09:00−19ene1110099 0.1 102518
12:00−11e129697 0.0 1027101
15:00−8n119666 0.1 102930
18:00−16nne2210093 0.0 10339
21:00−19nne1110099 0.0 10359
24 january, mon
mon2400:00−20ne11100100 0.0 10369
03:00−21n22100100 0.0 103812
06:00−21nne21100100 0.0 103815
09:00−22ene11100100 0.1 10399
12:00−12nne119684 0.0 103885
15:00−9nne00967 0.0 103730
18:00−17nne1110080 0.0 10379
21:00−20sse11100100 0.0 10379
25 january, tue
tue2500:00−21s00100100 0.0 10369
03:00−23sw11100100 0.0 10359
06:00−24ssw11100100 0.0 103312
09:00−24ssw22100100 0.0 103230
12:00−13ssw369674 0.0 1029146
15:00−10ssw38935 0.0 1026242
18:00−14ssw399893 0.0 1025120
21:00−15ssw399898 0.0 1024139